| time (UTC) | temp F | wind direction | speed knots | gust knots | rain 1hr in | rain 24hr in | rain mn in | humidity % | barometer mb |
| 20260507014827 | 52 | 70 | 4.3 | 9.6 | 0.00 | 1.58 | 0.00 | 91 | 1010.7 |
| 20260507013345 | 52 | 53 | 1.7 | 4.3 | 0.00 | 1.69 | 0.00 | 90 | 1010.8 |
| 20260507011837 | 52 | 80 | 1.7 | 2.6 | 0.00 | 1.69 | 0.00 | 90 | 1010.7 |
| 20260507010331 | 52 | 54 | 0.9 | 3.5 | 0.00 | 1.69 | 0.00 | 90 | 1010.7 |
| 20260507004829 | 52 | 46 | 1.7 | 4.3 | 0.00 | 1.69 | 0.00 | 89 | 1010.6 |
| 20260507003342 | 53 | 9 | 0.9 | 3.5 | 0.00 | 1.69 | 0.00 | 89 | 1010.5 |
| 20260507001839 | 53 | 350 | 2.6 | 9.6 | 0.00 | 1.69 | 0.00 | 88 | 1010.5 |
| 20260507000336 | 53 | 94 | 1.7 | 9.6 | 0.00 | 1.69 | 0.00 | 89 | 1010.3 |
| 20260506234829 | 53 | 41 | 6.1 | 11.3 | 0.00 | 1.69 | 0.00 | 89 | 1010.3 |
| 20260506233324 | 53 | 51 | 4.3 | 9.6 | 0.00 | 1.69 | 0.00 | 90 | 1010.4 |
| 20260506231842 | 53 | 26 | 3.5 | 11.3 | 0.00 | 1.69 | 0.00 | 90 | 1010.5 |
| 20260506230345 | 53 | 67 | 4.3 | 9.6 | 0.00 | 1.69 | 0.00 | 90 | 1010.4 |
| 20260506224838 | 53 | 85 | 3.5 | 7.8 | 0.00 | 1.69 | 0.00 | 90 | 1010.3 |
| 20260506223328 | 53 | 55 | 4.3 | 9.6 | 0.00 | 1.69 | 0.00 | 91 | 1010.1 |
| 20260506221826 | 53 | 80 | 4.3 | 9.6 | 0.00 | 1.69 | 0.00 | 91 | 1010.1 |
| 20260506220339 | 53 | 90 | 2.6 | 9.6 | 0.00 | 1.69 | 0.00 | 92 | 1010.1 |
| 20260506214834 | 52 | 63 | 2.6 | 6.1 | 0.00 | 1.69 | 1.69 | 92 | 1010.1 |
| 20260506213329 | 52 | 41 | 1.7 | 4.3 | 0.00 | 1.69 | 1.69 | 92 | 1010.1 |
| 20260506211842 | 52 | 40 | 2.6 | 9.6 | 0.00 | 1.69 | 1.69 | 92 | 1010.0 |
| 20260506210333 | 52 | 22 | 2.6 | 7.0 | 0.00 | 1.69 | 1.69 | 93 | 1009.9 |
| 20260506204835 | 52 | 347 | 1.7 | 4.3 | 0.00 | 1.69 | 1.69 | 93 | 1009.8 |
| 20260506203325 | 52 | 324 | 2.6 | 4.3 | 0.00 | 1.70 | 1.69 | 93 | 1009.8 |
| 20260506201827 | 52 | 54 | 1.7 | 2.6 | 0.00 | 1.70 | 1.69 | 93 | 1009.8 |
| 20260506200345 | 52 | 33 | 0.0 | 4.3 | 0.00 | 1.70 | 1.69 | 93 | 1009.7 |
| 20260506194836 | 52 | 53 | 1.7 | 3.5 | 0.00 | 1.70 | 1.69 | 93 | 1009.4 |
| 20260506193333 | 52 | 22 | 3.5 | 5.2 | 0.00 | 1.70 | 1.69 | 92 | 1009.1 |
| 20260506191841 | 52 | 58 | 0.0 | 2.6 | 0.03 | 1.70 | 1.69 | 92 | 1008.9 |
| 20260506190332 | 52 | 74 | 2.6 | 8.7 | 0.12 | 1.70 | 1.69 | 93 | 1008.6 |
| 20260506184835 | 53 | 99 | 4.3 | 10.4 | 0.19 | 1.70 | 1.69 | 92 | 1007.8 |
| 20260506183335 | 53 | 117 | 3.5 | 12.2 | 0.33 | 1.75 | 1.69 | 92 | 1008.2 |
| 20260506181829 | 54 | 107 | 8.7 | 11.3 | 0.30 | 1.72 | 1.66 | 91 | 1007.9 |
| 20260506180342 | 54 | 308 | 2.6 | 5.2 | 0.21 | 1.63 | 1.57 | 90 | 1008.9 |
| 20260506174834 | 55 | 55 | 6.1 | 9.6 | 0.14 | 1.56 | 1.50 | 89 | 1008.0 |
| 20260506173343 | 55 | 51 | 0.9 | 7.8 | 0.00 | 1.52 | 1.36 | 89 | 1007.6 |
| 20260506171835 | 55 | 73 | 2.6 | 6.1 | 0.00 | 1.52 | 1.36 | 90 | 1007.4 |
| 20260506170329 | 56 | 38 | 0.0 | 3.5 | 0.00 | 1.52 | 1.36 | 90 | 1007.2 |
| 20260506164838 | 56 | 70 | 1.7 | 6.1 | 0.00 | 1.52 | 1.36 | 90 | 1006.9 |
| 20260506163332 | 56 | 47 | 1.7 | 6.1 | 0.00 | 1.54 | 1.36 | 90 | 1006.9 |
| 20260506161828 | 56 | 28 | 7.0 | 16.5 | 0.00 | 1.54 | 1.36 | 90 | 1006.6 |
| 20260506160342 | 57 | 86 | 8.7 | 15.6 | 0.00 | 1.54 | 1.36 | 91 | 1006.1 |
| 20260506154839 | 57 | 78 | 5.2 | 12.2 | 0.00 | 1.54 | 1.36 | 93 | 1005.7 |
| 20260506153339 | 56 | 76 | 6.1 | 12.2 | 0.00 | 1.55 | 1.36 | 94 | 1006.3 |
| 20260506151838 | 56 | 5 | 4.3 | 8.7 | 0.15 | 1.55 | 1.36 | 94 | 1006.5 |
| 20260506150343 | 55 | 95 | 2.6 | 8.7 | 0.41 | 1.55 | 1.36 | 94 | 1006.7 |
| 20260506144834 | 56 | 78 | 4.3 | 9.6 | 0.57 | 1.55 | 1.36 | 94 | 1006.7 |
| 20260506143329 | 55 | 23 | 3.5 | 6.1 | 0.59 | 1.55 | 1.36 | 93 | 1006.6 |
| 20260506141842 | 55 | 37 | 0.9 | 7.0 | 0.46 | 1.41 | 1.22 | 93 | 1007.0 |
| 20260506140342 | 57 | 323 | 3.5 | 15.6 | 0.47 | 1.15 | 0.96 | 93 | 1006.9 |
| 20260506134837 | 56 | 19 | 1.7 | 13.0 | 0.42 | 0.99 | 0.80 | 93 | 1007.1 |
| 20260506133334 | 56 | 360 | 4.3 | 17.4 | 0.42 | 0.96 | 0.77 | 93 | 1006.8 |
| 20260506131831 | 56 | 137 | 2.6 | 10.4 | 0.41 | 0.95 | 0.76 | 92 | 1006.9 |
| 20260506130325 | 59 | 155 | 3.5 | 10.4 | 0.15 | 0.68 | 0.49 | 92 | 1007.0 |
| 20260506124844 | 60 | 98 | 7.8 | 12.2 | 0.05 | 0.58 | 0.39 | 91 | 1006.6 |
| 20260506123339 | 61 | 140 | 3.5 | 10.4 | 0.01 | 0.55 | 0.35 | 90 | 1006.7 |
| 20260506121839 | 61 | 184 | 4.3 | 17.4 | 0.02 | 0.55 | 0.35 | 89 | 1006.6 |
| 20260506120335 | 61 | 202 | 7.0 | 14.8 | 0.01 | 0.54 | 0.34 | 90 | 1006.5 |
| 20260506114828 | 61 | 184 | 7.8 | 15.6 | 0.01 | 0.54 | 0.34 | 91 | 1006.5 |
| 20260506113332 | 60 | 175 | 5.2 | 9.6 | 0.01 | 0.58 | 0.34 | 93 | 1006.6 |
| 20260506111825 | 59 | 232 | 4.3 | 10.4 | 0.00 | 0.57 | 0.33 | 93 | 1006.9 |
| 20260506110337 | 59 | 212 | 5.2 | 11.3 | 0.00 | 0.57 | 0.33 | 94 | 1006.9 |
| 20260506104831 | 58 | 104 | 5.2 | 12.2 | 0.00 | 0.57 | 0.33 | 96 | 1006.8 |
| 20260506103342 | 59 | 155 | 5.2 | 15.6 | 0.00 | 0.62 | 0.33 | 97 | 1007.2 |
| 20260506101838 | 57 | 187 | 5.2 | 16.5 | 0.00 | 0.62 | 0.33 | 97 | 1007.2 |
| 20260506100329 | 57 | 223 | 3.5 | 15.6 | 0.00 | 0.62 | 0.33 | 97 | 1007.1 |
| 20260506094829 | 57 | 175 | 8.7 | 12.2 | 0.00 | 0.62 | 0.33 | 97 | 1007.2 |
| 20260506093328 | 57 | 117 | 4.3 | 12.2 | 0.00 | 0.67 | 0.33 | 97 | 1007.2 |
| 20260506091840 | 56 | 180 | 7.8 | 12.2 | 0.02 | 0.67 | 0.33 | 97 | 1007.3 |
| 20260506090340 | 56 | 208 | 5.2 | 11.3 | 0.05 | 0.67 | 0.33 | 97 | 1007.0 |
| 20260506084841 | 56 | 163 | 5.2 | 9.6 | 0.07 | 0.67 | 0.33 | 97 | 1006.9 |
| 20260506083333 | 56 | 148 | 4.3 | 15.6 | 0.07 | 0.67 | 0.33 | 97 | 1007.2 |
| 20260506081828 | 56 | 186 | 3.5 | 8.7 | 0.08 | 0.65 | 0.31 | 97 | 1007.4 |
| 20260506080330 | 55 | 168 | 3.5 | 10.4 | 0.06 | 0.62 | 0.28 | 97 | 1007.4 |
| 20260506073337 | 56 | 181 | 8.7 | 15.6 | 0.06 | 0.73 | 0.26 | 97 | 1007.5 |
| 20260506071832 | 56 | 161 | 5.2 | 13.0 | 0.04 | 0.71 | 0.24 | 97 | 1007.4 |
| 20260506070329 | 56 | 108 | 4.3 | 9.6 | 0.02 | 0.69 | 0.22 | 97 | 1007.7 |
| 20260506061830 | 55 | 220 | 2.6 | 8.7 | 0.01 | 0.90 | 0.20 | 97 | 1007.5 |
| 20260506060330 | 55 | 188 | 4.3 | 9.6 | 0.02 | 0.90 | 0.20 | 97 | 1007.8 |
| 20260506050342 | 55 | 175 | 2.6 | 8.7 | 0.02 | 0.89 | 0.18 | 97 | 1007.9 |
| 20260506044840 | 55 | 194 | 3.5 | 6.1 | 0.02 | 0.89 | 0.18 | 97 | 1008.2 |
| 20260506043333 | 55 | 155 | 3.5 | 6.1 | 0.02 | 0.89 | 0.18 | 97 | 1008.3 |
| 20260506041832 | 55 | 194 | 2.6 | 7.8 | 0.02 | 0.88 | 0.17 | 97 | 1008.4 |
| 20260506040346 | 55 | 188 | 4.3 | 10.4 | 0.01 | 0.87 | 0.16 | 97 | 1008.6 |
| 20260506034835 | 55 | 180 | 5.2 | 8.7 | 0.02 | 0.87 | 0.16 | 97 | 1008.5 |
| 20260506033344 | 55 | 169 | 1.7 | 5.2 | 0.03 | 0.87 | 0.16 | 97 | 1008.5 |
| 20260506031844 | 55 | 205 | 2.6 | 9.6 | 0.03 | 0.86 | 0.15 | 97 | 1008.6 |
| 20260506030343 | 55 | 146 | 2.6 | 5.2 | 0.04 | 0.86 | 0.15 | 97 | 1008.6 |
| 20260506024839 | 55 | 195 | 3.5 | 9.6 | 0.03 | 0.85 | 0.14 | 97 | 1009.2 |
| 20260506023330 | 55 | 217 | 3.5 | 7.8 | 0.03 | 0.84 | 0.13 | 97 | 1009.3 |
| 20260506021832 | 56 | 179 | 3.5 | 5.2 | 0.02 | 0.83 | 0.12 | 97 | 1009.6 |
| 20260506020347 | 56 | 163 | 2.6 | 5.2 | 0.01 | 0.82 | 0.11 | 97 | 1009.6 |